Location: De Greiden
(52.9496°N, 5.9137°E)
Time: 23:38:25
(UTC+00:00)

NOSS 2-1 (C) - Pass Details

Date: 24 January 2021
Orbit: 432 x 1770 km, 63.3° (Epoch: 27 February)

Event Time Altitude Azimuth Distance (km) Brightness Sun altitude
Rises 18:33:36 0° 217° (SW) 2,418 7.2 -21.8°
Reaches altitude 10° 18:35:38 10° 214° (SW) 1,533 6.0 -22.1°
Enters shadow 18:37:44 36° 200° (SSW) 707 4.0 -22.4°
